Regional Weather Roundup
Issued by NWS Little Rock, AR

Home | Current Version | Previous Version | Text Only | Print | Product List | Glossary On
Versions: 1 2 3 4 5 6 7 8 9 10 11 12 13 14 15 16 17 18 19 20 21 22 23 24 25 26 27 28 29 30 31 32
000
ASUS44 KLZK 241905
RWRLZK

WEATHER ROUNDUP FOR ARKANSAS
NATIONAL WEATHER SERVICE LITTLE ROCK AR
100 PM CST FRI NOV 24 2017

NOTE: "FAIR" INDICATES FEW OR NO CLOUDS BELOW 12,000 FEET WITH NO
SIGNIFICANT WEATHER AND/OR OBSTRUCTIONS TO VISIBILITY.

ARZ001-003-010-029-242000-
NORTHWEST ARKANSAS

CITY           SKY/WX    TMP DP  RH WIND       PRES   REMARKS
FAYETTEVILLE   SUNNY     69  33  26 SW21G28   29.82F
FORT SMITH     MOSUNNY   66  38  35 NE5       29.84F
HARRISON       SUNNY     73  33  23 SW12G17   29.80F
BENTONVILLE    SUNNY     69  34  27 SW20G25   29.82F
ROGERS         SUNNY     70  35  27 SW18G24   29.80F
SILOAM SPGS    SUNNY     70  36  28 S17G24    29.81
HIGHFILL       SUNNY     69  34  27 S20G26    29.80F
SPRINGDALE     MOSUNNY   68  32  26 S17G26    29.82F
$$

ARZ004-005-016-242000-
NORTH CENTRAL ARKANSAS

CITY           SKY/WX    TMP DP  RH WIND       PRES   REMARKS
BATESVILLE     SUNNY     65  35  33 S10       29.86F
FLIPPIN        SUNNY     73  35  25 S9        29.80F
MTN HOME       SUNNY     71  33  24 SW9G16    29.80F
$$

ARZ040-041-242000-
WEST CENTRAL ARKANSAS

CITY           SKY/WX    TMP DP  RH WIND       PRES   REMARKS
MENA           SUNNY     72  32  23 SW7       29.88F
MOUNT IDA      SUNNY     69  33  26 MISG      29.87F
$$

ARZ009-017-025-026-028-242000-
NORTHEAST ARKANSAS

CITY           SKY/WX    TMP DP  RH WIND       PRES   REMARKS
JONESBORO      SUNNY     63  37  38 SW17      29.88F
NEWPORT        MOSUNNY   65  34  31 S16       29.87F
WALNUT RIDGE     N/A     62  36  37 S18       29.86F
BLYTHEVILLE    SUNNY     62  36  37 SW20G25   29.90F
$$

ARZ022-023-033-042-044-242000-
CENTRAL ARKANSAS

CITY           SKY/WX    TMP DP  RH WIND       PRES   REMARKS
LITTLE ROCK    MOSUNNY   67  33  28 S12       29.90F
N LITTLE ROCK    N/A     65  35  33 S9        29.92F
JACKSONVILLE   SUNNY     67  32  28 SW13      29.89F
SEARCY         SUNNY     67  35  30 S12G18    29.88F
HOT SPRINGS    SUNNY     70  32  24 SW9       29.90F
RUSSELLVILLE   SUNNY     67  32  27 S7        29.86F
CLINTON        FAIR      66  34  30 SW8G14    29.86F
$$

ARZ036-242000-
EAST ARKANSAS

CITY           SKY/WX    TMP DP  RH WIND       PRES   REMARKS
WEST MEMPHIS   CLOUDY    60  36  40 S8        29.91F
$$

ARZ050-053-066-070-073-242000-
SOUTHWEST ARKANSAS

CITY           SKY/WX    TMP DP  RH WIND       PRES   REMARKS
ARKADELPHIA    FAIR      68  35  29 SW12      29.92F
CAMDEN         SUNNY     70  30  23 SW7G13    29.93F
TEXARKANA      SUNNY     67  34  29 S9        29.93F
EL DORADO      SUNNY     67  36  31 S10       29.95F
DE QUEEN       SUNNY     69  38  32 S8        29.88F
$$

ARZ056-057-069-242000-
SOUTHEAST ARKANSAS

CITY           SKY/WX    TMP DP  RH WIND       PRES   REMARKS
PINE BLUFF     MOSUNNY   65  33  30 SW8       29.93F
STUTTGART      MOSUNNY   65  33  30 S14       29.92F
MONTICELLO     MOSUNNY   64  33  31 SW10      29.94F

$$






USA.gov is the U.S. government's official web portal to all federal, state and local government web resources and services.